Date,TemperatureHighF,TemperatureAvgF,TemperatureLowF,DewpointHighF,DewpointAvgF,DewpointLowF,HumidityHigh,HumidityAvg,HumidityLow,PressureMaxIn,PressureMinIn,WindSpeedMaxMPH,WindSpeedAvgMPH,GustSpeedMaxMPH,PrecipitationSumIn
2013-10-1,79.8,60.6,47.4,0.0,0.0,0.0,0,0,100,29.95,29.81,12,1,12,0.01
2013-10-2,82.4,68.2,56.1,0.0,0.0,0.0,0,0,100,29.90,29.77,16,3,17,0.00
2013-10-3,82.0,66.1,56.0,0.0,0.0,0.0,0,0,100,30.05,29.90,10,1,11,0.00
2013-10-4,66.3,60.0,52.6,0.0,0.0,0.0,0,0,100,30.07,30.01,9,1,10,0.00
2013-10-5,65.3,60.1,57.7,0.0,0.0,0.0,0,0,100,30.11,30.03,16,3,18,0.00
2013-10-6,58.9,56.3,53.7,0.0,0.0,0.0,0,0,100,30.23,30.10,24,8,24,0.16
2013-10-7,70.9,63.0,56.6,0.0,0.0,0.0,0,0,100,30.13,29.78,19,4,23,0.10
2013-10-8,66.9,55.7,47.4,0.0,0.0,0.0,0,0,100,30.36,30.18,16,2,16,0.00
2013-10-9,64.8,52.1,42.3,0.0,0.0,0.0,0,0,100,30.46,30.35,14,2,15,0.00
2013-10-10,63.5,52.0,42.5,0.0,0.0,0.0,0,0,100,30.35,30.17,10,2,10,0.00
2013-10-11,70.3,56.4,47.5,0.0,0.0,0.0,0,0,100,30.17,30.09,12,2,12,0.00
2013-10-12,57.3,54.7,49.6,0.0,0.0,0.0,0,0,100,30.39,30.13,23,6,24,0.00
2013-10-13,65.3,52.8,44.2,0.0,0.0,0.0,0,0,100,30.44,30.37,10,1,12,0.01
2013-10-14,66.0,52.0,40.0,0.0,0.0,0.0,0,0,100,30.38,30.22,14,3,15,0.00
2013-10-15,60.4,56.8,53.5,0.0,0.0,0.0,0,0,100,30.25,30.18,13,1,14,0.00
2013-10-17,64.8,59.5,58.1,0.0,0.0,0.0,0,0,100,29.74,29.68,6,0,6,0.00
2013-10-18,70.4,61.4,53.3,0.0,0.0,0.0,0,0,100,29.86,29.56,30,5,30,0.10
2013-10-19,71.1,56.6,45.0,0.0,0.0,0.0,0,0,100,29.94,29.73,15,4,15,0.00
2013-10-20,65.6,55.4,47.9,0.0,0.0,0.0,0,0,100,29.98,29.66,24,5,27,0.00
2013-10-21,70.7,53.1,40.0,0.0,0.0,0.0,0,0,100,30.09,29.97,15,3,15,0.00
2013-10-22,68.5,55.3,47.6,0.0,0.0,0.0,0,0,100,29.97,29.68,20,2,20,0.00
2013-10-23,58.8,48.0,39.7,0.0,0.0,0.0,0,0,100,29.77,29.56,9,1,10,0.00
2013-10-24,56.7,47.2,40.1,0.0,0.0,0.0,0,0,100,29.84,29.59,23,6,28,0.00
2013-10-25,51.7,42.3,35.2,0.0,0.0,0.0,0,0,100,30.12,29.84,22,4,22,0.00
2013-10-26,55.1,45.3,34.3,0.0,0.0,0.0,0,0,100,30.13,29.85,23,6,24,0.00
2013-10-27,58.3,47.9,39.9,0.0,0.0,0.0,0,0,100,30.02,29.79,19,5,23,0.04
2013-10-28,60.6,45.8,36.6,0.0,0.0,0.0,0,0,100,30.33,30.02,24,6,26,0.00
2013-10-29,53.4,39.2,28.8,0.0,0.0,0.0,0,0,100,30.44,30.33,11,2,11,0.00
2013-10-30,49.8,40.4,33.7,0.0,0.0,0.0,0,0,100,30.35,30.18,10,1,11,0.02
2013-10-31,60.7,46.9,33.0,0.0,0.0,0.0,0,0,100,30.22,29.76,20,2,21,0.10